Meteo Giornale » Osservazioni meteo Stati Uniti (USA) » Chippewa Intl
ore: 14:56 - Osservazioni Meteo Chippewa Intl
Lat. 46° 15' N Lon. 84° 28' W Alt. 244 metri s.l.m.
20 °C
Foschia
Temp. 24 Ore
0 °C
20 °C
Est
13 Km/h
Dew point 19 °C
Umidità 93 %
Visibilità 6 Km
Il sole sorge alle ore 06:57
Il sole tramonta alle ore 20:18
| Data e Ora | Cielo e Fenomeni | T °C | DP °C | Um. % | Pres. hPa | Vis. km | Vento km/h | |
|---|---|---|---|---|---|---|---|---|
| Oggi h: 14:56 | Foschia | 20 | 19 | 93 | 1013 | 6 | E 13 | |
| Oggi h: 14:14 | Foschia | 19 | 19 | 100 | 1014 | 5 | E/SE 14.8 | |
| Oggi h: 13:56 | Foschia | 19 | 19 | 100 | 1014 | 2 | E/SE 18.5 | |
| Oggi h: 13:51 | Foschia | 19 | 19 | 100 | 1014 | 5 | E/SE 14.8 | |
| Oggi h: 13:35 | Foschia | 19 | 19 | 100 | 1014 | 2 | SE 18.5 | |
| Oggi h: 13:10 | Foschia | 19 | 19 | 100 | 1014 | 2 | E/SE 18.5 | |
| Oggi h: 12:56 | Nebbia | 18 | 18 | 100 | 1014 | 2 | E/SE 16.7 | |
| Oggi h: 12:12 | Nebbia | 18 | 18 | 100 | 1014 | 2 | E/SE 16.7 | |
| Oggi h: 11:56 | Pioggia Nebbia | 18 | 18 | 100 | 1014 | 2 | E 14.8 | |
| Oggi h: 10:56 | Nebbia | 18 | 18 | 100 | 1015 | 2 | SE 16.7 | |
| Oggi h: 09:56 | Foschia | 18 | 18 | 100 | 1015 | 2 | SE 16.7 | |
| Oggi h: 09:44 | Foschia | 18 | 18 | 100 | 1015 | 2 | S/SE 13 | |
| Oggi h: 09:35 | Foschia | 18 | 18 | 100 | 1015 | 5 | S/SE 11.1 | |
| Oggi h: 09:25 | Foschia | 18 | 18 | 100 | 1015 | 2 | SE 16.7 | |
| Oggi h: 09:15 | Foschia | 18 | 18 | 100 | 1015 | 5 | SE 13 | |
| Oggi h: 08:56 | Foschia | 18 | 18 | 100 | 1015 | 2 | SE 18.5 | |
| Oggi h: 08:40 | Foschia | 18 | 18 | 100 | 1014 | 2 | E/SE 18.5 | |
| Oggi h: 08:14 | Nebbia | 18 | 18 | 100 | 1014 | 2 | SE 18.5 | |
| Oggi h: 07:56 | Nebbia | 0 | 0 | 51 | 1014 | 2 | E/SE 18.5 | |
| Oggi h: 06:56 | Nebbia | 0 | 0 | 51 | 1014 | 2 | E/SE 20.3 | |
| Oggi h: 06:13 | Foschia | 0 | 0 | 100 | 1015 | 5 | E/SE 18.5 | |
| Oggi h: 05:56 | Pioggia | 0 | 0 | 30 | 1016 | 2 | E/SE 13 | |
| Oggi h: 05:24 | Foschia | 18 | 18 | 100 | 1016 | 5 | E/SE 14.8 | |
| Oggi h: 04:56 | Foschia | 18 | 18 | 100 | 1016 | 2 | E/SE 14.8 | |
| Oggi h: 04:28 | Foschia | 18 | 18 | 100 | 1016 | 3 | E/SE 14.8 | |
| Oggi h: 03:56 | Foschia | 18 | 18 | 100 | 1016 | 8 | E/SE 13 | |
| Oggi h: 02:56 | Foschia | 18 | 18 | 100 | 1016 | 10 | E/SE 16.7 | |
| Oggi h: 02:33 | Foschia | 18 | 18 | 100 | 1016 | 6 | E 11.1 | |
| Oggi h: 01:56 | Coperto | 18 | 18 | 100 | 1016 | 13 | E/SE 14.8 | |
| Oggi h: 00:56 | Coperto | 18 | 18 | 100 | 1017 | 10 | E/SE 11.1 | |
| Oggi h: 00:45 | Coperto | 18 | 18 | 100 | 1017 | 10 | E/SE 11.1 | |
| Ieri h: 23:56 | Coperto | 18 | 18 | 100 | 1016 | 10 | E/SE 11.1 | |
| Ieri h: 23:35 | Molto Nuvoloso | 18 | 17 | 93 | 1016 | 10 | E/SE 11.1 | |
| Ieri h: 22:56 | Sereno | 17 | 17 | 100 | 1016 | 10 | E/SE 13 | |
| Ieri h: 21:56 | Sereno | 18 | 17 | 93 | 1016 | 10 | E 11.1 | |
| Ieri h: 21:17 | Poco Nuvoloso | 18 | 17 | 93 | 1017 | 10 | E/NE 11.1 | |
| Ieri h: 21:04 | Molto Nuvoloso | 18 | 17 | 93 | 1016 | 10 | E 9.3 | |
| Ieri h: 20:56 | Molto Nuvoloso | 18 | 17 | 93 | 1016 | 10 | E 9.3 | |
| Ieri h: 20:18 | Coperto | 19 | 18 | 93 | 1016 | 10 | E/SE 11.1 | |
| Ieri h: 19:56 | Coperto | 19 | 18 | 93 | 1016 | 10 | E 13 | |
| Ieri h: 19:48 | Molto Nuvoloso | 19 | 18 | 93 | 1016 | 10 | E 13 | |
| Ieri h: 19:03 | Coperto | 19 | 18 | 93 | 1016 | 10 | E/SE 14.8 | |
| Ieri h: 18:56 | Sereno | 19 | 18 | 93 | 1016 | 10 | E/SE 13 | |
| Ieri h: 17:56 | Coperto | 19 | 18 | 93 | 1016 | 10 | E/SE 14.8 | |
| Ieri h: 17:44 | Coperto | 19 | 18 | 93 | 1016 | 10 | SE 18.5 | |
| Ieri h: 17:36 | Coperto | 19 | 18 | 93 | 1016 | 10 | SE 14.8 | |
| Ieri h: 17:23 | Coperto | 19 | 18 | 93 | 1016 | 10 | E/SE 14.8 | |
| Ieri h: 16:56 | Coperto | 19 | 17 | 88 | 1016 | 10 | E/SE 20.3 | |
| Ieri h: 15:56 | Coperto | 18 | 18 | 100 | 1016 | 13 | E 20.3 | |



